FW5135 Weather Reports


Display with metric or nautical units.
time (UTC)temp
F
wind
direction
speed
MPH
gust
MPH
rain 1hr
in
rain 24hr
in
rain mn
in
humidity
%
barometer
mb
20260510192506 77 220 1.0 7.0 0.00 0.00 0.00 50 1012.3
20260510192007 76 277 0.0 1.0 0.00 0.00 0.00 51 1012.2
20260510191506 76 313 0.0 2.0 0.00 0.00 0.00 51 1012.4
20260510191005 76 290 1.0 3.0 0.00 0.00 0.00 49 1012.3
20260510190505 76 265 1.0 3.0 0.00 0.00 0.00 49 1012.3
20260510190006 76 268 1.0 3.0 0.00 0.00 0.00 51 1012.4
20260510185505 76 269 1.0 6.0 0.00 0.01 0.00 50 1012.5
20260510185005 76 256 2.0 8.0 0.00 0.01 0.00 50 1012.5
20260510184505 76 249 3.0 8.0 0.00 0.01 0.00 49 1012.4
20260510184006 76 247 3.0 9.0 0.00 0.01 0.00 48 1012.4
20260510183505 76 241 5.0 11.0 0.00 0.01 0.00 46 1012.3
20260510183006 77 239 6.0 11.0 0.00 0.01 0.00 45 1012.2
20260510182507 78 229 5.0 9.0 0.00 0.01 0.00 44 1012.3
20260510182005 79 217 5.0 9.0 0.00 0.01 0.00 45 1012.3
20260510181506 79 231 3.0 9.0 0.00 0.01 0.00 44 1012.2
20260510180005 80 241 4.0 12.0 0.00 0.01 0.00 44 1012.2
20260510175506 79 245 3.0 8.0 0.00 0.01 0.00 48 1012.3
20260510175006 78 235 4.0 11.0 0.00 0.01 0.00 48 1012.4
20260510174507 78 215 5.0 11.0 0.00 0.01 0.00 45 1012.4
20260510174006 78 200 4.0 10.0 0.00 0.01 0.00 46 1012.3
20260510173506 77 226 3.0 8.0 0.00 0.01 0.00 49 1012.4
20260510173006 78 272 2.0 7.0 0.00 0.01 0.00 47 1012.4
20260510172506 77 280 2.0 8.0 0.00 0.01 0.00 49 1012.4
20260510172006 77 260 3.0 8.0 0.00 0.01 0.00 48 1012.5
20260510171506 77 241 3.0 8.0 0.00 0.01 0.00 48 1012.5
20260510171005 76 233 3.0 8.0 0.00 0.01 0.00 53 1012.6
20260510170506 76 243 3.0 8.0 0.00 0.01 0.00 51 1012.6
20260510165506 76 242 1.0 5.0 0.00 0.01 0.00 56 1012.6
20260510164005 74 297 2.0 4.0 0.00 0.01 0.00 57 1012.8
20260510163506 74 281 2.0 7.0 0.00 0.01 0.00 59 1012.9
20260510163005 74 284 2.0 7.0 0.00 0.01 0.00 59 1012.9
20260510162506 73 263 2.0 6.0 0.00 0.01 0.00 62 1012.7
20260510162006 73 272 2.0 6.0 0.00 0.01 0.00 60 1012.7
20260510161505 73 303 1.0 4.0 0.00 0.01 0.00 58 1012.7
20260510161006 72 262 2.0 7.0 0.00 0.01 0.00 61 1012.8
20260510160506 72 252 2.0 7.0 0.00 0.01 0.00 62 1012.9
20260510160006 72 241 2.0 6.0 0.00 0.01 0.00 62 1012.9
20260510155505 71 274 2.0 6.0 0.00 0.01 0.00 61 1012.9
20260510155006 71 287 2.0 6.0 0.00 0.01 0.00 63 1013.0
20260510154506 70 284 2.0 6.0 0.00 0.01 0.00 68 1013.1
20260510153506 69 312 2.0 6.0 0.00 0.01 0.00 66 1013.2
20260510153006 69 295 1.0 6.0 0.00 0.01 0.00 68 1013.2
20260510152506 69 304 1.0 4.0 0.00 0.01 0.00 69 1013.2
20260510152006 69 321 2.0 4.0 0.00 0.01 0.00 69 1013.2
20260510151506 69 319 2.0 5.0 0.00 0.01 0.00 69 1013.2
20260510151005 68 329 1.0 5.0 0.00 0.01 0.00 70 1013.3
20260510150506 67 338 1.0 4.0 0.00 0.01 0.00 71 1013.3
20260510150005 67 315 1.0 3.0 0.00 0.01 0.00 73 1013.3
20260510145506 66 296 1.0 3.0 0.00 0.01 0.00 72 1013.2
20260510145006 66 287 1.0 3.0 0.00 0.01 0.00 74 1013.2
20260510144506 65 323 1.0 3.0 0.00 0.01 0.00 73 1013.2
20260510144007 65 334 1.0 3.0 0.00 0.01 0.00 73 1013.2
20260510143006 64 234 0.0 5.0 0.00 0.01 0.00 77 1013.3
20260510142006 63 183 1.0 3.0 0.00 0.01 0.00 80 1013.3
20260510141006 61 192 1.0 3.0 0.00 0.01 0.00 80 1013.4
20260510140506 61 263 1.0 4.0 0.00 0.01 0.00 81 1013.4
20260510140006 61 265 1.0 4.0 0.00 0.01 0.00 83 1013.5
20260510135506 60 288 1.0 4.0 0.00 0.01 0.00 82 1013.3
20260510134506 59 212 2.0 5.0 0.00 0.01 0.00 86 1013.3
20260510134006 58 172 1.0 4.0 0.00 0.01 0.00 85 1013.3
20260510133506 58 88 0.0 3.0 0.00 0.01 0.00 87 1013.2
20260510133006 58 79 0.0 3.0 0.00 0.01 0.00 89 1013.2
20260510132506 56 0 0.0 0.0 0.00 0.01 0.00 90 1013.4
20260510132006 56 0 0.0 0.0 0.00 0.01 0.00 90 1013.4
20260510131505 56 0 0.0 0.0 0.00 0.01 0.00 91 1013.4
20260510131007 56 0 0.0 0.0 0.00 0.01 0.00 92 1013.5
20260510130506 55 0 0.0 0.0 0.00 0.01 0.00 92 1013.6
20260510130006 54 0 0.0 0.0 0.00 0.01 0.00 92 1013.5
20260510125506 54 79 0.0 1.0 0.00 0.01 0.00 92 1013.3
20260510125006 54 78 0.0 2.0 0.00 0.01 0.00 92 1013.2
20260510124506 54 78 0.0 2.0 0.00 0.01 0.00 92 1013.1
20260510124006 54 79 0.0 1.0 0.00 0.01 0.00 92 1013.0
20260510123506 53 75 0.0 2.0 0.00 0.01 0.00 92 1013.1
20260510123006 53 51 1.0 4.0 0.00 0.01 0.00 92 1013.1
20260510122506 53 31 1.0 4.0 0.00 0.01 0.00 92 1012.9
20260510122005 53 20 0.0 4.0 0.00 0.01 0.00 92 1013.0
20260510121505 53 0 0.0 0.0 0.00 0.01 0.00 92 1013.2
20260510121007 53 0 0.0 0.0 0.00 0.01 0.00 92 1013.0
20260510120007 53 0 0.0 0.0 0.00 0.01 0.00 92 1012.7
20260510115505 52 32 0.0 1.0 0.00 0.01 0.00 92 1012.8
20260510115006 53 41 1.0 3.0 0.00 0.01 0.00 92 1012.7
20260510114506 52 42 1.0 3.0 0.00 0.01 0.00 92 1012.7
20260510114006 52 0 0.0 0.0 0.00 0.01 0.00 92 1012.8
20260510113505 52 0 0.0 0.0 0.00 0.01 0.00 92 1012.9
20260510113006 52 0 0.0 0.0 0.00 0.01 0.00 92 1012.8
20260510112507 52 28 0.0 2.0 0.00 0.01 0.00 92 1012.6
20260510111506 52 29 2.0 6.0 0.00 0.01 0.00 92 1012.4
20260510111007 52 30 2.0 3.0 0.00 0.01 0.00 92 1012.3
20260510110506 52 24 1.0 3.0 0.00 0.01 0.00 92 1012.2
20260510110007 51 16 1.0 3.0 0.00 0.01 0.00 92 1012.2
20260510105507 51 18 1.0 3.0 0.00 0.01 0.00 92 1012.3
20260510105005 51 28 1.0 3.0 0.00 0.01 0.00 92 1012.3
20260510104506 51 36 1.0 3.0 0.00 0.01 0.00 92 1012.1
20260510104007 51 49 1.0 3.0 0.00 0.01 0.00 92 1012.0
20260510103506 51 64 1.0 4.0 0.00 0.01 0.00 92 1011.8
20260510102506 51 56 2.0 3.0 0.00 0.01 0.00 92 1011.9
20260510102006 51 51 2.0 5.0 0.00 0.01 0.00 92 1012.0
20260510101507 51 35 2.0 5.0 0.00 0.01 0.00 92 1011.9
20260510100506 51 17 1.0 5.0 0.00 0.01 0.00 92 1012.0
20260510095506 50 13 1.0 4.0 0.00 0.01 0.00 92 1012.1
20260510095006 50 4 1.0 3.0 0.00 0.01 0.00 92 1011.7
20260510094506 50 19 1.0 4.0 0.00 0.01 0.00 92 1011.8
20260510094006 50 11 2.0 4.0 0.00 0.01 0.00 92 1011.6
20260510093507 51 21 2.0 5.0 0.00 0.01 0.00 92 1011.8
20260510093006 51 25 3.0 8.0 0.00 0.01 0.00 92 1011.5
20260510092505 51 358 3.0 8.0 0.00 0.01 0.00 92 1012.0
20260510092006 51 344 2.0 7.0 0.00 0.01 0.00 92 1011.3
20260510091506 51 349 1.0 4.0 0.00 0.01 0.00 92 1011.5
20260510091006 51 356 1.0 3.0 0.00 0.01 0.00 92 1011.5
20260510090506 51 342 0.0 3.0 0.00 0.01 0.00 92 1011.6
20260510085506 51 106 0.0 2.0 0.00 0.01 0.00 92 1011.0
20260510085006 51 0 0.0 0.0 0.00 0.01 0.00 92 1011.0
20260510084506 51 0 0.0 0.0 0.00 0.01 0.00 92 1011.0
20260510084006 51 106 0.0 2.0 0.00 0.01 0.00 92 1011.1
20260510083507 50 106 0.0 2.0 0.00 0.01 0.00 92 1011.0
20260510083006 50 0 0.0 0.0 0.00 0.01 0.00 92 1011.0
20260510082006 50 107 0.0 1.0 0.00 0.01 0.00 92 1011.0
20260510081505 50 107 0.0 1.0 0.00 0.01 0.00 92 1011.0
20260510080506 49 0 0.0 0.0 0.00 0.01 0.00 92 1011.0
20260510080007 48 0 0.0 0.0 0.00 0.01 0.00 92 1011.1
20260510075506 47 0 0.0 0.0 0.00 0.01 0.00 92 1011.0
20260510075006 47 0 0.0 0.0 0.00 0.01 0.00 92 1010.9
20260510074506 47 0 0.0 0.0 0.00 0.01 0.00 92 1010.9
20260510074006 47 0 0.0 0.0 0.00 0.01 0.00 92 1010.8
20260510073507 47 0 0.0 0.0 0.00 0.01 0.00 92 1010.8
20260510073006 47 0 0.0 0.0 0.00 0.01 0.00 92 1010.7
20260510072506 47 0 0.0 0.0 0.00 0.01 0.00 92 1010.6
20260510072006 47 0 0.0 0.0 0.00 0.01 0.00 92 1010.5
20260510071506 47 0 0.0 0.0 0.00 0.01 0.00 92 1010.4
20260510070507 47 0 0.0 0.0 0.00 0.01 0.00 91 1010.3
20260510070006 47 0 0.0 0.0 0.00 0.01 0.00 91 1010.3
20260510065506 47 0 0.0 0.0 0.00 0.01 0.00 91 1010.4
20260510065006 47 0 0.0 0.0 0.00 0.01 0.00 91 1010.4
20260510064506 47 0 0.0 0.0 0.00 0.01 0.00 92 1010.4
20260510064007 47 0 0.0 0.0 0.00 0.01 0.00 92 1010.4
20260510063506 47 0 0.0 0.0 0.00 0.01 0.00 92 1010.4
20260510063008 47 0 0.0 0.0 0.00 0.01 0.00 92 1010.4
20260510062507 47 0 0.0 0.0 0.00 0.01 0.00 91 1010.4
20260510061506 48 0 0.0 0.0 0.00 0.01 0.00 91 1010.5
20260510061006 48 0 0.0 0.0 0.00 0.01 0.00 91 1010.4
20260510060506 48 0 0.0 0.0 0.00 0.01 0.00 91 1010.4
20260510060007 48 0 0.0 0.0 0.00 0.01 0.00 91 1010.5
20260510055505 48 0 0.0 0.0 0.00 0.01 0.00 91 1010.5
20260510055006 48 0 0.0 0.0 0.00 0.01 0.00 91 1010.6
20260510054506 48 0 0.0 0.0 0.00 0.01 0.00 91 1010.7
20260510054007 48 0 0.0 0.0 0.00 0.01 0.00 91 1010.7
20260510053505 48 0 0.0 0.0 0.00 0.01 0.00 91 1010.7
20260510053006 48 0 0.0 0.0 0.00 0.01 0.00 91 1010.7
20260510052506 48 0 0.0 0.0 0.00 0.01 0.00 91 1010.7
20260510052007 48 0 0.0 0.0 0.00 0.01 0.00 91 1010.7
20260510051506 48 0 0.0 0.0 0.00 0.01 0.00 91 1010.8
20260510051006 48 0 0.0 0.0 0.00 0.01 0.00 91 1010.9
20260510050507 48 0 0.0 0.0 0.00 0.01 0.00 91 1010.9
20260510050001 48 0 0.0 0.0 0.00 0.01 0.00 91 1010.9
20260510044002 49 0 0.0 0.0 0.00 0.01 0.00 91 1011.1
20260510043502 49 0 0.0 0.0 0.00 0.01 0.00 91 1011.0
20260510043001 49 0 0.0 0.0 0.00 0.01 0.00 91 1011.1
20260510042501 49 0 0.0 0.0 0.00 0.01 0.00 91 1011.1
20260510042000 49 0 0.0 0.0 0.00 0.01 0.00 91 1011.1
20260510041500 49 0 0.0 0.0 0.00 0.01 0.00 91 1011.1
20260510040501 49 0 0.0 0.0 0.00 0.01 0.00 91 1011.1
20260510040006 49 0 0.0 0.0 0.00 0.01 0.00 91 1011.2
20260510035502 49 0 0.0 0.0 0.00 0.01 0.01 91 1011.2
20260510035001 50 0 0.0 0.0 0.00 0.01 0.01 91 1011.1
20260510034001 50 0 0.0 0.0 0.00 0.01 0.01 91 1010.9
20260510033500 50 0 0.0 0.0 0.00 0.01 0.01 91 1010.8
20260510033001 50 0 0.0 0.0 0.00 0.01 0.01 90 1010.7
20260510032501 50 0 0.0 0.0 0.00 0.01 0.01 91 1010.7
20260510032000 50 0 0.0 0.0 0.00 0.01 0.01 91 1010.6
20260510031501 50 0 0.0 0.0 0.00 0.01 0.01 91 1010.7
20260510031001 50 0 0.0 0.0 0.00 0.01 0.01 91 1010.6
20260510030503 50 0 0.0 0.0 0.00 0.01 0.01 90 1010.5
20260510025500 50 0 0.0 0.0 0.00 0.01 0.01 90 1010.6
20260510025001 51 0 0.0 0.0 0.00 0.01 0.01 90 1010.6
20260510024501 51 0 0.0 0.0 0.00 0.01 0.01 90 1010.7
20260510023001 51 0 0.0 0.0 0.00 0.01 0.01 90 1010.6
20260510022502 51 0 0.0 0.0 0.00 0.01 0.01 90 1010.6
20260510022001 51 0 0.0 0.0 0.00 0.01 0.01 90 1010.6
20260510021500 51 0 0.0 0.0 0.00 0.01 0.01 90 1010.5
20260510021002 51 0 0.0 0.0 0.00 0.01 0.01 90 1010.4
20260510020501 51 0 0.0 0.0 0.00 0.01 0.01 90 1010.4
20260510020001 52 0 0.0 0.0 0.00 0.01 0.01 90 1010.4
20260510015001 52 0 0.0 0.0 0.00 0.01 0.01 90 1010.3
20260510014501 52 0 0.0 0.0 0.00 0.01 0.01 89 1010.4
20260510014000 52 0 0.0 0.0 0.00 0.01 0.01 89 1010.4
20260510013502 52 0 0.0 0.0 0.00 0.01 0.01 89 1010.5
20260510013001 52 0 0.0 0.0 0.00 0.01 0.01 89 1010.5
20260510012501 53 0 0.0 0.0 0.00 0.01 0.01 89 1010.4
20260510011501 53 0 0.0 0.0 0.00 0.01 0.01 89 1010.4
20260510011001 53 0 0.0 0.0 0.00 0.01 0.01 88 1010.3
20260510010501 53 0 0.0 0.0 0.00 0.01 0.01 88 1010.1
20260510010002 54 0 0.0 0.0 0.00 0.01 0.01 88 1010.2
20260510005503 54 0 0.0 0.0 0.00 0.01 0.01 88 1010.1
20260510005001 54 0 0.0 0.0 0.00 0.01 0.01 88 1010.1
20260510004501 54 0 0.0 0.0 0.00 0.01 0.01 87 1010.1
20260510004001 54 0 0.0 0.0 0.00 0.01 0.01 87 1010.1
20260510003501 54 0 0.0 0.0 0.00 0.01 0.01 87 1010.2
20260510003001 55 0 0.0 0.0 0.00 0.01 0.01 86 1010.2
20260510002502 55 0 0.0 0.0 0.00 0.01 0.01 86 1010.1
20260510002001 55 0 0.0 0.0 0.00 0.01 0.01 85 1010.1
20260510001501 56 0 0.0 0.0 0.00 0.01 0.01 85 1010.0
20260510000501 56 0 0.0 0.0 0.00 0.01 0.01 84 1010.0
20260509235501 57 0 0.0 0.0 0.00 0.01 0.01 82 1010.1
20260509234001 58 61 1.0 3.0 0.00 0.01 0.01 79 1010.0
20260509233001 59 56 2.0 5.0 0.00 0.01 0.01 79 1009.9
20260509232500 59 65 2.0 5.0 0.00 0.01 0.01 79 1009.8
20260509232001 59 97 1.0 5.0 0.00 0.01 0.01 79 1009.6
20260509231501 59 99 2.0 5.0 0.00 0.01 0.01 79 1009.6
20260509231002 59 91 2.0 5.0 0.00 0.01 0.01 79 1009.5
20260509230502 59 90 2.0 5.0 0.00 0.01 0.01 80 1009.5
20260509230001 59 94 1.0 5.0 0.00 0.01 0.01 81 1009.6
20260509225501 59 72 2.0 5.0 0.00 0.01 0.01 80 1009.7
20260509225001 59 53 2.0 5.0 0.00 0.01 0.01 80 1009.7
20260509224501 59 44 2.0 5.0 0.00 0.01 0.01 80 1009.9
20260509224002 59 37 2.0 5.0 0.00 0.01 0.01 79 1009.9
20260509223002 59 37 3.0 8.0 0.00 0.01 0.01 79 1009.9
20260509222501 59 40 2.0 7.0 0.00 0.01 0.01 80 1010.0
20260509222001 59 51 3.0 7.0 0.00 0.01 0.01 79 1009.9
20260509221003 59 68 2.0 5.0 0.00 0.01 0.01 79 1009.9
20260509220502 60 57 2.0 5.0 0.00 0.01 0.01 79 1010.1
20260509215501 60 31 1.0 5.0 0.00 0.01 0.01 78 1010.3
20260509215001 60 23 2.0 8.0 0.00 0.01 0.01 77 1010.2
20260509214501 60 27 2.0 8.0 0.00 0.01 0.01 77 1010.3
20260509214001 60 32 3.0 10.0 0.00 0.01 0.01 76 1010.2
20260509213502 60 22 3.0 10.0 0.00 0.01 0.01 75 1010.2
20260509213001 60 357 3.0 7.0 0.00 0.01 0.01 73 1010.4
20260509212501 61 7 3.0 7.0 0.00 0.01 0.01 72 1010.7
20260509212001 61 27 2.0 8.0 0.00 0.01 0.01 72 1010.6
20260509211501 61 25 2.0 8.0 0.00 0.01 0.01 71 1010.4
20260509211001 61 12 2.0 7.0 0.00 0.01 0.01 70 1010.3
20260509210500 62 18 2.0 7.0 0.00 0.01 0.01 70 1010.2
20260509205501 62 358 2.0 8.0 0.00 0.01 0.01 68 1010.1
20260509205003 62 2 2.0 6.0 0.00 0.01 0.01 68 1010.2
20260509204501 62 16 3.0 6.0 0.00 0.01 0.01 70 1010.1
20260509204001 62 28 2.0 5.0 0.00 0.01 0.01 71 1010.1
20260509203501 62 40 2.0 5.0 0.00 0.01 0.01 71 1010.0
20260509203001 62 17 2.0 7.0 0.00 0.01 0.01 71 1009.8
20260509202001 62 342 2.0 7.0 0.00 0.01 0.01 72 1010.0
20260509201002 61 355 3.0 8.0 0.00 0.01 0.01 71 1010.0
20260509200001 62 352 3.0 7.0 0.00 0.01 0.01 71 1009.9
20260509195501 62 329 2.0 7.0 0.01 0.01 0.01 72 1009.9
20260509195002 62 335 3.0 8.0 0.01 0.01 0.01 71 1009.8
20260509194501 62 337 3.0 8.0 0.01 0.01 0.01 74 1009.9
20260509194001 62 331 3.0 8.0 0.01 0.01 0.01 74 1009.9
20260509193501 62 341 3.0 8.0 0.01 0.01 0.01 72 1010.0
20260509193001 62 344 3.0 7.0 0.01 0.01 0.01 72 1010.1